Location: Slanting_Bridge
(35.6330°N, 80.9830°W)
Time: 02:54:50
(UTC-04:00)

Amateur Radio Satellites - All Passes

Search period start: 25 June 2016 02:24
Search period end: 26 June 2016 02:24
Location: Slanting_Bridge, 35.6330°N, 80.9830°W

Satellite Date Start Highest point End Downlink Frequencies (MHz)
Time Altitude Azimuth
ITUPSAT 1 25 Jun 02:25:22 02:29:42 35° 71° (ENE) 02:34:04 437.325
BEESAT 25 Jun 02:27:07 02:31:30 38° 71° (ENE) 02:35:54 436.000
Cosmos 2504 25 Jun 02:36:56 02:45:54 84° 84° (E) 02:54:28 435.465 / 435.565
YUBILEINY 25 Jun 02:41:39 02:48:58 31° 276° (W) 02:56:19 435.215
BUGSAT 1 25 Jun 02:54:46 02:55:24 10° 295° (WNW) 02:56:02 437.445
BEESAT 3 25 Jun 03:11:56 03:14:33 17° 110° (ESE) 03:17:11 437.485
PCSat 25 Jun 03:29:48 03:35:10 72° 114° (ESE) 03:40:35 145.827
Gurwin Techsat 1B 25 Jun 03:37:58 03:43:19 86° 286° (WNW) 03:48:38 435.225
SWISSCUBE 25 Jun 03:39:09 03:43:24 32° 262° (W) 03:47:42 437.505
BEESAT 2 25 Jun 03:41:06 03:44:03 20° 111° (ESE) 03:47:00 435.950
MOZHAYETS 4 25 Jun 03:43:58 03:47:38 24° 69° (ENE) 03:51:19
Cosmos 2491 25 Jun 03:48:03 03:54:08 20° 292° (WNW) 04:00:14 435.465 / 435.565
SO-50 25 Jun 03:48:27 03:51:57 22° 250° (WSW) 03:55:21 436.795
Oscar 19 25 Jun 03:55:22 03:59:27 24° 292° (WNW) 04:03:30 437.125/150
JAS-2 25 Jun 03:58:21 03:59:45 11° 302° (WNW) 04:01:07 435.910
ITUPSAT 1 25 Jun 04:04:03 04:07:35 20° 265° (W) 04:11:09 437.325
BEESAT 25 Jun 04:06:00 04:09:22 19° 266° (W) 04:12:45 436.000
ITAMSAT 1 25 Jun 04:07:50 04:13:02 64° 102° (ESE) 04:18:12 435.822/435.867
O/OREOS (USA 219) 25 Jun 04:15:04 04:19:34 80° 288° (WNW) 04:24:05 437.305
KKS-1 25 Jun 04:22:53 04:27:18 77° 77° (ENE) 04:31:44 437.445
AIST 1 25 Jun 04:30:39 04:33:03 15° 73° (ENE) 04:35:26
Cosmos 2504 25 Jun 04:32:45 04:38:02 18° 281° (WNW) 04:43:14 435.465 / 435.565
BEESAT 3 25 Jun 04:48:27 04:51:58 31° 305° (NW) 04:55:31 437.485
GONETS M04 25 Jun 04:50:14 04:50:56 10° 61° (ENE) 04:51:38
AO-7 25 Jun 04:54:02 05:02:18 59° 103° (ESE) 05:10:30 29.400- 29.500
CUBESAT XI-V 25 Jun 05:00:55 05:04:07 18° 67° (ENE) 05:07:18 437.345
STARS 25 Jun 05:06:22 05:10:42 69° 259° (WSW) 05:15:03 437.465
PCSat 25 Jun 05:15:51 05:19:06 16° 311° (NW) 05:22:23 145.827
BEESAT 2 25 Jun 05:18:15 05:21:41 28° 306° (NW) 05:25:09 435.950
MOZHAYETS 4 25 Jun 05:20:39 05:24:37 28° 264° (W) 05:28:39
AIST 2 25 Jun 05:27:20 05:29:42 15° 109° (ESE) 05:32:06 435.215
Cosmos 2499 25 Jun 05:34:55 05:39:41 15° 64° (ENE) 05:44:18 435.465 / 435.565
HORYU 2 25 Jun 05:42:38 05:46:40 32° 98° (E) 05:50:41 437.375
ITAMSAT 1 25 Jun 05:49:10 05:51:55 14° 297° (WNW) 05:54:39 435.822/435.867
AIST 1 25 Jun 06:06:52 06:10:46 36° 268° (W) 06:14:38
CUTE-I 25 Jun 06:21:44 06:23:11 11° 91° (E) 06:24:39 437.470
STRAND 1 25 Jun 06:24:34 06:24:48 10° 61° (ENE) 06:25:03 437.568
CUBESAT XI-V 25 Jun 06:36:45 06:41:09 39° 262° (W) 06:45:35 437.345
GONETS M04 25 Jun 06:40:50 06:49:30 67° 81° (E) 06:58:11
NOAA 18 25 Jun 06:45:19 06:49:40 23° 96° (E) 06:54:00 137.9125
AO-7 25 Jun 06:47:39 06:54:31 30° 300° (WNW) 07:01:22 29.400- 29.500
GOMX 1 25 Jun 06:57:39 06:59:45 13° 94° (E) 07:01:51 467.674
NOAA 15 25 Jun 07:00:17 07:05:13 41° 99° (E) 07:10:08 137.62
AIST 2 25 Jun 07:03:57 07:07:49 39° 304° (WNW) 07:11:44 435.215
HORYU 2 25 Jun 07:19:41 07:22:59 20° 292° (WNW) 07:26:16 437.375
Cubesat XI-IV 25 Jun 07:22:46 07:27:59 49° 100° (E) 07:33:10 437.490
LilacSat-2 25 Jun 07:24:33 07:28:20 50° 100° (E) 07:32:06 437.200
Cosmos 2499 25 Jun 07:25:17 07:34:11 85° 85° (E) 07:42:29 435.465 / 435.565
CUSAT 1 25 Jun 07:31:22 07:37:41 27° 89° (E) 07:43:32 437.405
PHONESAT 2.4 25 Jun 07:38:03 07:39:40 14° 144° (SE) 07:41:18 2401.200-2431.200
AO-85 25 Jun 07:38:23 07:42:15 28° 52° (NE) 07:45:51 145.980
BRITE-PL 25 Jun 07:40:04 07:44:13 72° 283° (WNW) 07:48:21 437.365/2234.400
STRAND 1 25 Jun 07:58:03 08:03:11 87° 256° (WSW) 08:08:22 437.568
CUTE-I 25 Jun 07:58:21 08:03:44 76° 285° (WNW) 08:09:04 437.470
CINEMA 3 25 Jun 08:06:38 08:07:19 10° 92° (E) 08:08:00 145.822/145.860
PRISM 25 Jun 08:13:58 08:16:46 18° 68° (ENE) 08:19:35 437.425
DOVE 4 25 Jun 08:16:09 08:20:20 51° 100° (E) 08:24:43 437.250
NOAA 18 25 Jun 08:25:15 08:30:24 41° 290° (WNW) 08:35:33 137.9125
CANX-2 25 Jun 08:29:14 08:32:15 19° 94° (E) 08:35:16 2200.000
HO-68 25 Jun 08:31:23 08:37:19 27° 96° (E) 08:43:11 435.675
GOMX 1 25 Jun 08:34:04 08:37:58 39° 286° (WNW) 08:41:59 467.674
GONETS M04 25 Jun 08:39:14 08:45:29 23° 278° (W) 08:51:45
NOAA 15 25 Jun 08:40:47 08:44:41 22° 294° (WNW) 08:48:35 137.62
COMPASS 1 25 Jun 08:47:36 08:49:14 12° 92° (E) 08:50:52 437.405
CUTE 1.7 + AOD 2 25 Jun 08:49:28 08:53:10 28° 96° (E) 08:56:49 437.475
DANDE 25 Jun 08:56:59 09:05:05 61° 93° (E) 09:13:08 436.750
SEEDS 25 Jun 09:00:45 09:04:20 26° 96° (E) 09:07:53 437.485
Cubesat XI-IV 25 Jun 09:03:55 09:07:39 19° 295° (WNW) 09:11:22 437.490
CUSAT 1 25 Jun 09:11:33 09:19:26 58° 281° (W) 09:26:29 437.405
PHONESAT 2.4 25 Jun 09:12:53 09:15:57 85° 159° (SSE) 09:19:01 2401.200-2431.200
AO-85 25 Jun 09:19:06 09:22:32 23° 250° (WSW) 09:25:45 145.980
Cosmos 2499 25 Jun 09:20:57 09:25:59 17° 282° (WNW) 09:30:54 435.465 / 435.565
UWE-3 25 Jun 09:24:08 09:27:02 16° 94° (E) 09:29:57 435.000/436.395/437.385
Oscar 11 25 Jun 09:30:43 09:32:23 12° 92° (E) 09:34:03 145.826/435.025
FUNcube-1 25 Jun 09:32:53 09:34:34 12° 92° (E) 09:36:15 145.935
ISS 25 Jun 09:35:29 09:38:05 22° 130° (SE) 09:40:41 145.825
CINEMA 3 25 Jun 09:40:16 09:44:43 63° 284° (WNW) 09:49:22 145.822/145.860
PRISM 25 Jun 09:48:05 09:51:48 32° 262° (W) 09:55:34 437.425
AAUSAT CUBESAT 2 25 Jun 09:50:40 09:54:47 58° 100° (E) 09:58:52 437.432
DOVE 4 25 Jun 09:55:56 09:57:39 12° 293° (WNW) 09:59:24 437.250
AUBIESAT-1 25 Jun 10:03:22 10:06:58 35° 104° (ESE) 10:10:48 437.475
CUBEBUG 2 25 Jun 10:03:27 10:08:02 69° 101° (E) 10:12:42 437.445
CANX-2 25 Jun 10:04:21 10:08:08 31° 288° (WNW) 10:11:53 2200.000
ANTELSAT 25 Jun 10:07:29 10:10:35 20° 68° (ENE) 10:13:43 437.575/2403.000
HO-68 25 Jun 10:18:18 10:25:12 51° 291° (WNW) 10:32:05 435.675
COMPASS 1 25 Jun 10:21:00 10:25:01 45° 286° (WNW) 10:28:59 437.405
CUTE 1.7 + AOD 2 25 Jun 10:25:35 10:28:48 21° 291° (WNW) 10:32:01 437.475
DELFI C3 25 Jun 10:34:56 10:38:27 29° 97° (E) 10:41:54 145.870
SEEDS 25 Jun 10:36:37 10:39:52 22° 290° (WNW) 10:43:05 437.485
M-CUBED/EXP-1 PRIME 25 Jun 10:39:07 10:42:54 64° 289° (WNW) 10:47:00 437.505
DANDE 25 Jun 10:41:18 10:48:16 29° 289° (WNW) 10:55:07 436.750
ZACube-1 25 Jun 10:46:48 10:51:20 87° 284° (WNW) 10:55:56 437.345
PHONESAT 2.4 25 Jun 10:49:56 10:52:46 33° 354° (N) 10:55:37 2401.200-2431.200
HUMSAT D 25 Jun 10:58:07 11:01:44 26° 96° (E) 11:05:19 437.325/437.525
TIGRISAT 25 Jun 10:58:55 11:03:09 76° 77° (ENE) 11:07:29 435.000
UWE-3 25 Jun 10:59:18 11:03:35 41° 287° (WNW) 11:07:56 435.000/436.395/437.385
UNISAT 6 25 Jun 11:02:43 11:06:58 90° 100° (E) 11:11:20 437.425
Oscar 11 25 Jun 11:04:32 11:08:45 49° 286° (WNW) 11:12:56 145.826/435.025
FUNcube-1 25 Jun 11:06:39 11:11:03 55° 285° (WNW) 11:15:31 145.935
ISS 25 Jun 11:11:30 11:14:25 29° 325° (NW) 11:17:20 145.825
RS-15 25 Jun 11:20:59 11:29:05 23° 100° (E) 11:37:25 29.354- 29.394
AAUSAT CUBESAT 2 25 Jun 11:29:16 11:29:43 10° 295° (WNW) 11:30:11 437.432
AUBIESAT-1 25 Jun 11:38:47 11:41:13 16° 295° (WNW) 11:43:44 437.475
CUBEBUG 2 25 Jun 11:43:05 11:44:04 11° 295° (WNW) 11:45:03 437.445
ANTELSAT 25 Jun 11:43:20 11:47:04 29° 263° (W) 11:50:53 437.575/2403.000
Cosmos 2491 25 Jun 12:02:26 12:09:59 32° 73° (ENE) 12:17:30 435.465 / 435.565
BUGSAT 1 25 Jun 12:03:52 12:07:10 25° 71° (ENE) 12:10:27 437.445
NANOSAT C BR1 25 Jun 12:04:12 12:08:20 67° 75° (ENE) 12:12:29 145.865
QB50P1 25 Jun 12:04:57 12:09:07 73° 76° (ENE) 12:13:18 145.935-145.965
POPSAT HIP 1 25 Jun 12:07:47 12:11:57 77° 77° (ENE) 12:16:09 437.405
DELFI C3 25 Jun 12:10:23 12:13:03 17° 291° (WNW) 12:15:42 145.870
50 SAT 25 Jun 12:14:51 12:17:27 18° 95° (E) 12:20:03 437.505
JAS-2 25 Jun 12:17:14 12:23:51 32° 67° (ENE) 12:30:06 435.910
DX 1 25 Jun 12:17:53 12:20:23 15° 94° (E) 12:22:52 434.975-435.025
QB50P2 25 Jun 12:19:08 12:23:18 70° 259° (W) 12:27:30 145.880/145.840
PCSat 25 Jun 12:20:58 12:25:46 31° 56° (NE) 12:30:32 145.827
POLYITAN 1 25 Jun 12:21:46 12:25:55 68° 259° (W) 12:30:06 437.675
DUCHIFAT 1 25 Jun 12:26:39 12:30:47 68° 259° (W) 12:34:56 145.980
PHONESAT 2.4 25 Jun 12:26:52 12:29:47 38° 10° (N) 12:32:41 2401.200-2431.200
HUMSAT D 25 Jun 12:33:48 12:37:12 23° 290° (WNW) 12:40:36 437.325/437.525
VELOX 1 25 Jun 12:39:02 12:43:04 35° 99° (E) 12:47:04 145.980
CUBEBUG 1 25 Jun 12:40:50 12:44:55 41° 99° (E) 12:48:59 437.445
O/OREOS (USA 219) 25 Jun 12:51:39 12:52:35 11° 56° (NE) 12:53:31 437.305
ESTCUBE 1 25 Jun 12:59:36 13:04:07 77° 284° (WNW) 13:08:35 437.505/2401.250
BEESAT 3 25 Jun 13:07:52 13:11:45 53° 58° (ENE) 13:15:36 437.485
AISAT 25 Jun 13:19:09 13:23:31 71° 285° (WNW) 13:27:53 437.250
Gurwin Techsat 1B 25 Jun 13:19:49 13:22:05 13° 62° (ENE) 13:24:20 435.225
Cosmos 2504 25 Jun 13:25:05 13:26:51 11° 75° (ENE) 13:28:39 435.465 / 435.565
RS-15 25 Jun 13:28:37 13:39:58 82° 300° (WNW) 13:52:02 29.354- 29.394
Oscar 19 25 Jun 13:29:36 13:34:20 38° 71° (ENE) 13:39:03 437.125/150
BEESAT 2 25 Jun 13:38:16 13:42:15 64° 59° (ENE) 13:46:11 435.950
BUGSAT 1 25 Jun 13:39:28 13:42:29 20° 264° (W) 13:45:29 437.445
UKube-1 25 Jun 13:39:32 13:43:50 71° 285° (WNW) 13:48:07 .
YUBILEINY 25 Jun 13:40:53 13:49:25 65° 92° (E) 13:58:03 435.215
TISAT 1 25 Jun 13:47:18 13:50:30 21° 96° (E) 13:53:41 437.305
50 SAT 25 Jun 13:48:08 13:51:04 23° 289° (WNW) 13:54:00 437.505
SPROUT 25 Jun 13:48:13 13:52:30 82° 285° (WNW) 13:56:47 437.525
DX 1 25 Jun 13:52:40 13:56:42 39° 288° (WNW) 14:00:43 434.975-435.025
Cosmos 2491 25 Jun 13:58:45 14:07:00 49° 271° (W) 14:15:14 435.465 / 435.565
JAS-2 25 Jun 14:01:04 14:08:33 49° 261° (W) 14:15:37 435.910
PHONESAT 2.4 25 Jun 14:03:27 14:06:30 57° 206° (SSW) 14:09:32 2401.200-2431.200
AO-7 25 Jun 14:04:02 14:06:33 12° 49° (NE) 14:09:05 29.400- 29.500
PCSat 25 Jun 14:04:20 14:09:05 32° 252° (WSW) 14:13:49 145.827
VELOX 1 25 Jun 14:16:17 14:19:14 18° 293° (WNW) 14:22:10 145.980
CUBEBUG 1 25 Jun 14:18:23 14:20:50 15° 293° (WNW) 14:23:17 437.445
O/OREOS (USA 219) 25 Jun 14:27:59 14:32:27 69° 252° (WSW) 14:36:54 437.305
ITUPSAT 1 25 Jun 14:31:07 14:32:33 11° 91° (E) 14:33:58 437.325
BEESAT 25 Jun 14:32:12 14:33:59 12° 92° (E) 14:35:46 436.000
Gurwin Techsat 1B 25 Jun 14:56:03 15:01:21 74° 259° (WSW) 15:06:40 435.225
Oscar 19 25 Jun 15:09:46 15:13:42 22° 265° (W) 15:17:39 437.125/150
Cosmos 2504 25 Jun 15:10:39 15:18:31 76° 93° (E) 15:27:01 435.465 / 435.565
TISAT 1 25 Jun 15:22:34 15:26:05 26° 289° (WNW) 15:29:36 437.305
ITAMSAT 1 25 Jun 15:22:44 15:27:55 72° 75° (ENE) 15:33:08 435.822/435.867
AIST 2 25 Jun 15:27:41 15:31:45 50° 58° (ENE) 15:35:47 435.215
YUBILEINY 25 Jun 15:40:11 15:46:50 24° 290° (WNW) 15:53:33 435.215
SWISSCUBE 25 Jun 15:41:34 15:46:24 81° 103° (ESE) 15:51:10 437.505
RS-15 25 Jun 15:45:27 15:54:37 26° 326° (NW) 16:04:11 29.354- 29.394
AO-7 25 Jun 15:49:29 15:57:37 62° 68° (ENE) 16:05:49 29.400- 29.500
ITUPSAT 1 25 Jun 16:06:00 16:10:45 63° 286° (WNW) 16:15:29 437.325
ISS 25 Jun 16:06:00 16:07:29 12° 25° (NNE) 16:08:57 145.825
BEESAT 25 Jun 16:07:23 16:12:06 59° 286° (WNW) 16:16:47 436.000
KKS-1 25 Jun 16:17:44 16:20:49 18° 95° (E) 16:23:52 437.445
SO-50 25 Jun 16:19:06 16:22:55 23° 110° (ESE) 16:26:44 436.795
HORYU 2 25 Jun 16:38:20 16:41:40 21° 68° (ENE) 16:45:01 437.375
STARS 25 Jun 16:59:03 17:02:45 26° 97° (E) 17:06:26 437.465
ITAMSAT 1 25 Jun 17:06:21 17:07:50 11° 269° (W) 17:09:19 435.822/435.867
Cosmos 2504 25 Jun 17:07:21 17:12:51 20° 293° (WNW) 17:18:37 435.465 / 435.565
AIST 2 25 Jun 17:08:08 17:09:45 12° 252° (WSW) 17:11:21 435.215
MOZHAYETS 4 25 Jun 17:17:46 17:22:27 83° 104° (ESE) 17:27:04
CUTE-I 25 Jun 17:40:02 17:43:02 15° 63° (ENE) 17:46:02 437.470
ISS 25 Jun 17:41:06 17:44:22 85° 39° (NE) 17:47:37 145.825
JUGNU 25 Jun 17:43:55 17:47:14 15° 172° (S) 17:50:32 437.505
AO-7 25 Jun 17:44:10 17:50:46 26° 264° (W) 17:57:26 29.400- 29.500
GONETS M04 25 Jun 17:47:28 17:51:01 13° 77° (ENE) 17:54:33
KKS-1 25 Jun 17:53:24 17:57:25 34° 288° (WNW) 18:01:25 437.445
SO-50 25 Jun 17:58:38 18:03:11 37° 306° (NW) 18:07:43 436.795
GOMX 1 25 Jun 18:03:46 18:05:46 13° 67° (ENE) 18:07:44 467.674
LilacSat-2 25 Jun 18:04:49 18:07:14 16° 69° (ENE) 18:09:40 437.200
RS-15 25 Jun 18:07:47 18:13:39 14° 2° (N) 18:19:36 29.354- 29.394
NOAA 18 25 Jun 18:08:36 18:13:26 33° 68° (ENE) 18:18:17 137.9125
Cosmos 2499 25 Jun 18:11:29 18:13:28 11° 75° (ENE) 18:15:28 435.465 / 435.565
HORYU 2 25 Jun 18:14:10 18:18:01 29° 263° (W) 18:21:55 437.375
NOAA 15 25 Jun 18:17:18 18:22:23 50° 72° (ENE) 18:27:29 137.62
AIST 1 25 Jun 18:32:28 18:36:44 54° 279° (W) 18:40:58
STARS 25 Jun 18:35:28 18:38:58 24° 291° (WNW) 18:42:29 437.465
CUBESAT XI-V 25 Jun 18:35:55 18:40:31 63° 101° (E) 18:45:04 437.345
Cubesat XI-IV 25 Jun 18:41:46 18:47:00 60° 73° (ENE) 18:52:17 437.490
BRITE-PL 25 Jun 18:46:56 18:52:14 90° 263° (W) 18:57:09 437.365/2234.400
SRMSAT 25 Jun 18:53:34 18:55:11 11° 167° (SSE) 18:56:48 437.500
HO-68 25 Jun 18:59:20 19:03:11 15° 57° (ENE) 19:07:02 435.675
CUTE-I 25 Jun 19:17:14 19:22:30 62° 259° (WSW) 19:27:49 437.470
DOVE 4 25 Jun 19:19:06 19:23:09 36° 73° (ENE) 19:27:03 437.250
JUGNU 25 Jun 19:31:49 19:35:29 17° 183° (S) 19:39:08 437.505
GONETS M04 25 Jun 19:37:40 19:46:23 84° 94° (E) 19:55:07
LilacSat-2 25 Jun 19:38:06 19:41:18 27° 263° (W) 19:44:33 437.200
GOMX 1 25 Jun 19:38:44 19:43:28 56° 259° (W) 19:47:55 467.674
CUTE 1.7 + AOD 2 25 Jun 19:40:28 19:42:49 15° 67° (ENE) 19:45:10 437.475
DANDE 25 Jun 19:43:54 19:48:10 25° 69° (ENE) 19:51:32 436.750
NOAA 18 25 Jun 19:49:27 19:54:02 28° 263° (W) 19:58:41 137.9125
SEEDS 25 Jun 19:50:59 19:53:04 13° 67° (ENE) 19:55:10 437.485
CUSAT 1 25 Jun 19:52:46 19:56:36 86° 255° (WSW) 19:59:36 437.405
Cosmos 2499 25 Jun 19:56:48 20:04:51 75° 93° (E) 20:13:31 435.465 / 435.565
NOAA 15 25 Jun 19:58:57 20:02:23 17° 266° (W) 20:05:50 137.62
STRAND 1 25 Jun 20:11:47 20:16:38 40° 99° (E) 20:21:26 437.568
CUBESAT XI-V 25 Jun 20:15:49 20:17:18 11° 296° (WNW) 20:18:47 437.345
RS-15 25 Jun 20:22:08 20:32:23 29° 38° (NE) 20:42:35 29.354- 29.394
Cubesat XI-IV 25 Jun 20:24:36 20:27:25 14° 268° (W) 20:30:14 437.490
AAUSAT CUBESAT 2 25 Jun 20:38:15 20:41:44 26° 71° (ENE) 20:45:13 437.432
CINEMA 3 25 Jun 20:39:08 20:43:18 82° 79° (ENE) 20:47:28 145.822/145.860
SRMSAT 25 Jun 20:40:00 20:43:34 16° 176° (S) 20:47:08 437.500
HO-68 25 Jun 20:42:44 20:49:54 89° 74° (ENE) 20:57:07 435.675
AUBIESAT-1 25 Jun 20:48:03 20:50:40 22° 67° (ENE) 20:53:16 437.475
CANX-2 25 Jun 20:53:18 20:57:32 65° 259° (W) 21:01:49 2200.000
DOVE 4 25 Jun 20:58:10 21:00:55 16° 265° (W) 21:03:37 437.250
CUBEBUG 2 25 Jun 20:59:04 21:02:51 36° 73° (ENE) 21:06:43 437.445
COMPASS 1 25 Jun 21:08:09 21:12:20 78° 77° (ENE) 21:16:34 437.405
CUTE 1.7 + AOD 2 25 Jun 21:14:14 21:18:16 41° 262° (W) 21:22:20 437.475
DELFI C3 25 Jun 21:19:42 21:21:24 12° 67° (ENE) 21:23:05 145.870
JUGNU 25 Jun 21:21:42 21:23:43 12° 193° (SSW) 21:25:45 437.505
M-CUBED/EXP-1 PRIME 25 Jun 21:23:43 21:27:03 82° 253° (WSW) 21:30:19 437.505
SEEDS 25 Jun 21:24:18 21:28:21 44° 261° (W) 21:32:26 437.485
DANDE 25 Jun 21:27:08 21:30:41 20° 277° (W) 21:33:37 436.750
PRISM 25 Jun 21:32:12 21:36:03 39° 99° (E) 21:39:52 437.425
GONETS M04 25 Jun 21:38:47 21:44:13 18° 294° (WNW) 21:49:40
ZACube-1 25 Jun 21:39:43 21:43:42 47° 74° (ENE) 21:47:48 437.345
HUMSAT D 25 Jun 21:48:15 21:50:01 12° 66° (ENE) 21:51:48 437.325/437.525
AO-85 25 Jun 21:49:13 21:53:25 23° 110° (ESE) 21:57:34 145.980
STRAND 1 25 Jun 21:51:40 21:55:29 21° 294° (WNW) 21:59:17 437.568
Cosmos 2499 25 Jun 21:53:02 21:58:52 21° 293° (WNW) 22:04:59 435.465 / 435.565
UWE-3 25 Jun 21:53:07 21:57:14 72° 258° (WSW) 22:01:27 435.000/436.395/437.385
Oscar 11 25 Jun 21:55:46 22:00:05 85° 80° (E) 22:04:28 145.826/435.025
FUNcube-1 25 Jun 21:58:59 22:03:07 79° 76° (ENE) 22:07:21 145.935
AAUSAT CUBESAT 2 25 Jun 22:13:55 22:17:08 21° 265° (W) 22:20:22 437.432
AUBIESAT-1 25 Jun 22:23:11 22:25:09 15° 260° (W) 22:27:06 437.475
SRMSAT 25 Jun 22:28:40 22:31:58 15° 187° (S) 22:35:17 437.500
RS-15 25 Jun 22:34:16 22:46:42 90° 62° (ENE) 22:58:55 29.354- 29.394
HO-68 25 Jun 22:35:16 22:38:22 13° 269° (W) 22:41:29 435.675
CUBEBUG 2 25 Jun 22:37:21 22:39:38 14° 267° (W) 22:41:56 437.445
DELFI C3 25 Jun 22:51:59 22:55:50 43° 261° (W) 22:59:42 145.870
TIGRISAT 25 Jun 22:53:48 22:57:18 21° 95° (E) 23:00:49 435.000
UNISAT 6 25 Jun 22:57:34 23:01:22 24° 96° (E) 23:05:10 437.425
PRISM 25 Jun 23:08:53 23:10:59 14° 294° (WNW) 23:13:05 437.425
ZACube-1 25 Jun 23:19:01 23:20:16 11° 269° (W) 23:21:32 437.345
HUMSAT D 25 Jun 23:21:12 23:25:11 46° 261° (W) 23:29:14 437.325/437.525
AO-85 25 Jun 23:28:27 23:33:39 45° 304° (NW) 23:38:43 145.980
VELOX 1 25 Jun 23:33:53 23:37:20 23° 69° (ENE) 23:40:47 145.980
CUBEBUG 1 25 Jun 23:34:16 23:37:48 24° 70° (ENE) 23:41:18 437.445
ANTELSAT 25 Jun 23:36:50 23:41:29 68° 102° (ESE) 23:46:09 437.575/2403.000
NANOSAT C BR1 25 Jun 23:53:09 23:55:15 13° 93° (E) 23:57:20 145.865
QB50P1 25 Jun 23:53:59 23:56:23 15° 93° (E) 23:58:46 145.935-145.965
YUBILEINY 25 Jun 23:55:25 00:02:41 28° 71° (ENE) 00:09:53 435.215
ESTCUBE 1 25 Jun 23:55:47 00:00:17 67° 75° (ENE) 00:04:49 437.505/2401.250
POPSAT HIP 1 25 Jun 23:56:44 23:59:18 16° 94° (E) 00:01:52 437.405
QB50P2 26 Jun 00:07:30 00:10:54 23° 96° (E) 00:14:17 145.880/145.840
POLYITAN 1 26 Jun 00:10:05 00:13:31 23° 96° (E) 00:16:58 437.675
AISAT 26 Jun 00:13:14 00:17:37 69° 75° (ENE) 00:22:00 437.250
DUCHIFAT 1 26 Jun 00:14:12 00:17:34 23° 96° (E) 00:20:54 145.980
50 SAT 26 Jun 00:22:04 00:25:45 84° 254° (WSW) 00:29:29 437.505
TIGRISAT 26 Jun 00:29:50 00:33:59 33° 289° (WNW) 00:38:10 435.000
UKube-1 26 Jun 00:30:49 00:35:04 64° 74° (ENE) 00:39:21 .
UNISAT 6 26 Jun 00:34:02 00:38:00 28° 289° (WNW) 00:41:59 437.425
TISAT 1 26 Jun 00:38:11 00:39:25 11° 65° (ENE) 00:40:39 437.305
SPROUT 26 Jun 00:38:40 00:42:45 49° 74° (ENE) 00:46:52 437.525
DX 1 26 Jun 00:44:39 00:48:59 68° 258° (WSW) 00:53:19 434.975-435.025
RS-15 26 Jun 00:49:20 00:57:30 21° 261° (W) 01:05:38 29.354- 29.394
SO-50 26 Jun 00:54:45 00:56:07 11° 42° (NE) 00:57:28 436.795
Cosmos 2491 26 Jun 00:59:42 01:07:40 41° 87° (E) 01:15:38 435.465 / 435.565
Cosmos 2504 26 Jun 01:07:44 01:14:43 25° 70° (ENE) 01:21:29 435.465 / 435.565
VELOX 1 26 Jun 01:09:52 01:13:38 27° 263° (W) 01:17:25 145.980
CUBEBUG 1 26 Jun 01:10:21 01:13:57 25° 264° (W) 01:17:33 437.445
JAS-2 26 Jun 01:15:45 01:20:19 25° 94° (E) 01:24:36 435.910
ANTELSAT 26 Jun 01:16:17 01:17:35 11° 296° (WNW) 01:18:55 437.575/2403.000
BUGSAT 1 26 Jun 01:22:43 01:26:47 66° 102° (ESE) 01:30:53 437.445
NANOSAT C BR1 26 Jun 01:27:08 01:31:08 42° 287° (WNW) 01:35:08 145.865
QB50P1 26 Jun 01:28:19 01:32:16 38° 287° (WNW) 01:36:13 145.935-145.965
POPSAT HIP 1 26 Jun 01:31:16 01:35:10 36° 288° (WNW) 01:39:04 437.405
ITUPSAT 1 26 Jun 01:36:25 01:37:06 10° 62° (ENE) 01:37:49 437.325
BEESAT 26 Jun 01:37:01 01:38:09 11° 63° (ENE) 01:39:17 436.000
QB50P2 26 Jun 01:43:07 01:46:37 25° 290° (WNW) 01:50:06 145.880/145.840
Oscar 19 26 Jun 01:45:09 01:48:20 16° 93° (E) 01:51:31 437.125/150
POLYITAN 1 26 Jun 01:45:45 01:49:14 25° 290° (WNW) 01:52:42 437.675
DUCHIFAT 1 26 Jun 01:49:42 01:53:10 25° 290° (WNW) 01:56:37 145.980
YUBILEINY 26 Jun 01:51:18 01:59:53 58° 269° (W) 02:08:28 435.215
TISAT 1 26 Jun 02:10:31 02:14:35 52° 260° (W) 02:18:39 437.305
SPROUT 26 Jun 02:17:40 02:18:56 11° 268° (W) 02:20:15 437.525
